{"data":{"norad_id":63043,"intl_designator":"2025-034Q","name":"STARLINK-32827","alt_names":[],"object_type":"PAYLOAD","status":"ACTIVE","operator":null,"country":"US","launch_date":"2025-02-18","launch_site_code":"AFETR","launch_vehicle":null,"mission":null,"orbit_class":"UNKNOWN","rcs_meters":null,"size_class":null,"mass_kg":null,"dimensions":null,"purposes":["comms"],"wikipedia_slug":null,"has_3d_model":false,"image_url":null,"decayed_at":null,"tle_current":{"epoch":"2026-09-21T19:57:26.575776Z","epoch_age_seconds":50580,"freshness":"FRESH","line1":"1 63043U 25034Q   26264.83155759  .00010434  00000+0  31956-3 0  9991","line2":"2 63043  53.1573  75.8346 0001110  95.0404 265.0725 15.34395544 88994","mean_motion":15.34395544,"eccentricity":0.000111,"inclination_deg":53.1573,"raan_deg":75.8346,"arg_perigee_deg":95.0404,"mean_anomaly_deg":265.0725,"bstar":0.00031956,"rev_number":8899,"period_min":93.848030622279,"perigee_km":461.95714967345,"apogee_km":463.47581914698,"semimajor_km":6840.8534844102,"source":"CELESTRAK","updated_at":"2026-09-22T09:00:49.746918Z"}}}